Location: Le Rocchette
(44.3500°N, 7.8333°E)
Time: 16:27:40
(UTC+00:00)

Cosmos 1408 Rocket - Pass Details

Date: 17 November 2019
Orbit: 602 x 630 km, 82.6° (Epoch: 12 December)

Event Time Altitude Azimuth Distance (km) Brightness Sun altitude
Rises 04:47:24 0° 184° (S) 2,839 7.0 -17.7°
Reaches altitude 10° 04:49:35 10° 183° (S) 1,942 6.2 -17.3°
Maximum altitude 04:53:53 79° 98° (E) 621 3.6 -16.5°
Drops below altitude 10° 04:58:14 10° 11° (N) 1,969 6.1 -15.8°
Sets 05:00:28 0° 10° (N) 2,882 7.0 -15.4°
